Tracking 29069 objects as of 18-Jul-2024
HD Live streaming from Space Station
objects crossing your sky now

COSMOS 1300

Track COSMOS 1300 now!
10-day predictions
COSMOS 1300 is classified as:


NORAD ID: 12785
Int'l Code: 1981-082A
Perigee: 470.3 km
Apogee: 471.7 km
Inclination: 82.5 °
Period: 93.9 minutes
Semi major axis: 6842 km
RCS: 5.912 m2 (large)
Launch date: August 24, 1981
Source: Commonwealth of Independent States (former USSR) (CIS)
Launch site: PLESETSK MISSILE AND SPACE COMPLEX (PKMTR)
Your satellite tracking list
Your tracking list is empty




NASA's NSSDC Master Catalog

Two Line Element Set (TLE):
1 12785U 81082A   24199.95147776  .00021188  00000-0  64229-3 0  9999
2 12785  82.4959  22.6022 0000964 119.7642 240.3697 15.34009776344650
Source of the keplerian elements: AFSPC